Location: Poznań
(52.4062°N, 16.9234°E)
Time: 18:30:11
(UTC+02:00)

OTV 5 (USA 277) - Visible Passes

Search period start: 16 June 2019 00:00
Search period end: 26 June 2019 00:00
Orbit: 310 x 325 km, 54.5° (Epoch: 08 May)

Date Brightness Start Highest point End Pass type
(mag) Time Alt. Az. Time Alt. Az. Time Alt. Az.
16 Jun ? 01:41:25 32° SSW 01:42:21 50° SSE 01:45:04 10° ENE visible
16 Jun ? 03:13:58 10° W 03:16:42 56° N 03:19:27 10° ENE visible
17 Jun ? 00:24:06 16° ESE 00:24:06 16° ESE 00:25:07 10° E visible
17 Jun ? 01:54:57 16° WSW 01:57:04 89° S 01:59:51 10° ENE visible
17 Jun ? 03:28:49 10° WNW 03:31:33 51° N 03:34:16 10° E visible
18 Jun ? 00:37:29 36° SSE 00:37:36 36° SSE 00:40:11 10° E visible
18 Jun ? 02:09:06 10° W 02:11:51 63° NNW 02:14:37 10° ENE visible
18 Jun ? 23:19:47 10° ESE 23:19:47 10° ESE 23:19:54 10° ESE visible
19 Jun ? 00:50:36 21° WSW 00:52:15 69° SSE 00:55:01 10° ENE visible
19 Jun ? 02:23:57 10° W 02:26:40 52° N 02:29:23 10° ENE visible
19 Jun ? 23:32:23 25° SSE 23:32:50 27° SE 23:35:15 10° E visible
20 Jun ? 01:04:14 10° WSW 01:07:00 74° NNW 01:09:46 10° ENE visible
20 Jun ? 02:38:47 10° WNW 02:41:31 53° N 02:44:14 10° E visible
20 Jun ? 23:44:45 10° SW 23:47:27 51° SSE 23:50:10 10° ENE visible
21 Jun ? 01:19:04 10° W 01:21:48 55° N 01:24:33 10° ENE visible
21 Jun ? 02:53:34 10° WNW 02:56:21 66° NNE 02:59:05 10° E visible
21 Jun ? 22:26:01 10° S 22:28:07 19° SE 22:30:13 10° E visible
21 Jun ? 23:59:23 10° WSW 00:02:09 89° SSW 00:04:57 10° ENE visible
22 Jun ? 01:33:55 10° WNW 01:36:39 51° N 01:39:21 10° E visible
22 Jun ? 03:08:20 10° WNW 03:11:07 83° SSW 03:13:52 10° ESE visible
22 Jun ? 22:40:05 10° SW 22:42:41 37° SSE 22:45:17 10° E visible
23 Jun ? 00:14:11 10° W 00:16:56 62° NNW 00:19:42 10° ENE visible
23 Jun ? 01:48:44 10° WNW 01:51:29 57° N 01:54:13 10° E visible
23 Jun ? 03:23:08 10° WNW 03:25:49 45° SSW 03:28:28 10° SE visible
23 Jun ? 22:54:35 10° WSW 22:57:21 70° SSE 23:00:07 10° ENE visible
24 Jun ? 00:29:03 10° W 00:31:46 52° N 00:34:30 10° ENE visible
24 Jun ? 02:03:30 10° WNW 02:06:17 79° NNE 02:09:03 10° ESE visible
24 Jun ? 03:38:05 10° W 03:40:24 24° SW 03:42:42 10° SSE visible
24 Jun ? 23:09:19 10° WSW 23:12:06 74° NNW 23:14:52 10° ENE visible
25 Jun ? 00:43:53 10° WNW 00:46:37 53° N 00:49:20 10° E visible
25 Jun ? 02:18:16 10° WNW 02:21:01 62° SSW 02:23:45 10° ESE visible
25 Jun ? 23:24:10 10° W 23:26:54 55° N 23:29:38 10° ENE visible
